Tracking 35331 objects as of 14-Sep-2026
HD Live streaming from Space Station
objects crossing your sky now

GONETS M 17

Track GONETS M 17 now!
10-day predictions


NORAD ID: 46486
Int'l Code: 2020-068A
Launch date: September 28, 2020
Source: Commonwealth of Independent States (former USSR) (CIS)
Launch site: PLESETSK MISSILE AND SPACE COMPLEX (PKMTR)
Your satellite tracking list
Your tracking list is empty




NASA's NSSDC Master Catalog

Two Line Element Set (TLE):
1 46486U 20068A   26257.32023922  .00000012  00000-0  14173-4 0  9992
2 46486  82.4953 292.0594 0022248 197.8257 162.2045 12.42886865270233
Source of the keplerian elements: AFSPC